FW9465 Weather Reports


time (UTC)temp
F
wind
direction
speed
knots
gust
knots
rain 1hr
in
rain 24hr
in
rain mn
in
humidity
%
barometer
mb
20260509211224 88 76 3.5 4.3 0.00 0.00 0.00 39 1008.1
20260509204324 88 24 3.5 5.2 0.00 0.00 0.00 37 1008.5
20260509203423 89 22 3.5 6.1 0.00 0.00 0.00 40 1008.7
20260509202424 89 55 4.3 7.0 0.00 0.00 0.00 40 1008.7
20260509195624 89 337 2.6 4.3 0.00 0.00 0.00 43 1008.9
20260509194722 88 228 0.0 0.0 0.00 0.00 0.00 43 1009.1
20260509193723 87 298 2.6 4.3 0.00 0.00 0.00 44 1009.2
20260509192724 88 328 0.9 3.5 0.00 0.00 0.00 43 1009.4
20260509191724 87 302 0.9 3.5 0.00 0.00 0.00 43 1009.4
20260509190823 87 45 1.7 3.5 0.00 0.00 0.00 45 1009.5
20260509185822 88 285 0.9 2.6 0.00 0.00 0.00 42 1009.5
20260509184823 87 86 0.9 4.3 0.00 0.00 0.00 44 1009.8
20260509183840 87 290 1.7 4.3 0.00 0.00 0.00 44 1009.7
20260509182839 86 254 3.5 5.2 0.00 0.00 0.00 48 1010.0
20260509181823 86 356 0.9 2.6 0.00 0.00 0.00 47 1010.0
20260509180825 86 87 0.0 0.9 0.00 0.00 0.00 47 1010.0
20260509175823 86 243 2.6 6.1 0.00 0.00 0.00 49 1010.1
20260509174824 84 337 0.0 2.6 0.00 0.00 0.00 50 1010.2
20260509173824 84 249 1.7 4.3 0.00 0.00 0.00 50 1010.3
20260509172838 83 353 0.9 1.7 0.00 0.00 0.00 52 1010.4
20260509171823 82 261 5.2 7.0 0.00 0.00 0.00 51 1010.3
20260509170922 82 269 4.3 6.1 0.00 0.00 0.00 52 1010.3
20260509165925 81 281 2.6 5.2 0.00 0.00 0.00 51 1010.5
20260509164922 81 288 3.5 8.7 0.00 0.00 0.00 54 1010.6
20260509163923 80 271 6.1 8.7 0.00 0.00 0.00 54 1010.7
20260509162924 80 284 3.5 7.0 0.00 0.00 0.00 57 1010.8
20260509161923 80 291 4.3 7.8 0.00 0.00 0.00 56 1011.0
20260509160923 81 296 2.6 4.3 0.00 0.00 0.00 58 1010.8
20260509155939 80 346 3.5 5.2 0.00 0.00 0.00 59 1010.8
20260509154024 79 301 0.9 2.6 0.00 0.00 0.00 61 1010.7
20260509153122 78 16 0.9 2.6 0.00 0.00 0.00 63 1010.5
20260509152122 77 295 4.3 6.1 0.00 0.00 0.00 65 1010.4
20260509151122 76 328 5.2 7.0 0.00 0.00 0.00 66 1010.7
20260509150124 76 330 5.2 7.0 0.00 0.00 0.00 66 1010.7
20260509144122 75 356 3.5 7.0 0.00 0.00 0.00 65 1010.7
20260509143123 75 352 4.3 7.0 0.00 0.00 0.00 70 1010.7
20260509142123 75 310 5.2 7.0 0.00 0.00 0.00 70 1010.7
20260509141122 73 315 2.6 4.3 0.00 0.00 0.00 75 1010.7
20260509140222 72 293 5.2 7.0 0.00 0.00 0.00 76 1011.0
20260509134222 70 279 2.6 5.2 0.00 0.00 0.00 77 1011.2
20260509133239 70 272 3.5 6.1 0.00 0.00 0.00 78 1011.0
20260509132329 69 292 6.1 7.8 0.00 0.00 0.00 77 1011.0
20260509130341 68 279 3.5 7.0 0.00 0.00 0.00 78 1011.0
20260509125323 68 295 2.6 5.2 0.00 0.00 0.00 78 1011.0
20260509124323 68 281 3.5 6.1 0.00 0.00 0.00 77 1011.0
20260509123423 68 322 2.6 6.1 0.00 0.00 0.00 79 1010.8
20260509122440 68 259 2.6 4.3 0.00 0.00 0.00 80 1010.7
20260509121521 67 275 0.9 2.6 0.00 0.00 0.00 81 1010.7
20260509115522 68 292 1.7 3.5 0.00 0.00 0.00 80 1010.3
20260509114524 68 336 3.5 4.3 0.00 0.00 0.00 80 1010.3
20260509113523 68 337 1.7 3.5 0.00 0.00 0.00 79 1009.9
20260509112622 68 22 3.5 5.2 0.00 0.00 0.00 78 1009.7
20260509111722 68 357 5.2 7.8 0.00 0.00 0.00 78 1009.4
20260509110725 68 335 5.2 7.0 0.00 0.00 0.00 76 1009.4
20260509105722 68 337 5.2 6.1 0.00 0.00 0.00 75 1009.4
20260509104722 68 330 7.0 8.7 0.00 0.00 0.00 74 1009.4
20260509103738 68 313 7.8 12.2 0.00 0.00 0.00 73 1009.6
20260509102821 68 305 7.8 13.9 0.00 0.00 0.00 73 1009.7
20260509101822 68 301 8.7 13.9 0.00 0.00 0.00 70 1009.6
20260509100921 70 291 5.2 8.7 0.00 0.00 0.00 68 1009.5
20260509095921 70 275 7.8 12.2 0.00 0.00 0.00 74 1009.4
20260509094938 70 273 4.3 6.1 0.00 0.00 0.00 80 1009.3
20260509094022 70 288 4.3 10.4 0.00 0.00 0.00 81 1009.3
20260509093022 69 204 7.0 15.6 0.00 0.00 0.00 84 1008.1
20260509092024 68 159 8.7 13.9 0.00 0.00 0.00 88 1006.1
20260509091022 67 161 9.6 12.2 0.00 0.00 0.00 85 1006.0
20260509090038 67 163 7.0 11.3 0.00 0.00 0.00 84 1006.3
20260509083221 67 185 4.3 7.8 0.00 0.00 0.00 86 1007.5
20260509082222 67 181 5.2 11.3 0.00 0.00 0.00 86 1007.9
20260509081221 67 171 7.0 10.4 0.00 0.00 0.00 87 1008.0
20260509080222 67 171 5.2 8.7 0.00 0.00 0.00 85 1008.6
20260509075322 68 164 5.2 7.8 0.00 0.00 0.00 85 1008.6
20260509074322 68 204 3.5 4.3 0.00 0.00 0.00 83 1008.8
20260509073341 69 161 6.1 8.7 0.00 0.00 0.00 81 1009.2
20260509072337 69 201 3.5 4.3 0.00 0.00 0.00 81 1010.1
20260509070423 69 249 4.3 7.8 0.00 0.00 0.00 87 1011.2
20260509065439 68 229 5.2 8.7 0.00 0.00 0.00 91 1011.8
20260509064521 68 270 5.2 7.8 0.00 0.00 0.00 91 1012.5
20260509063540 68 277 3.5 6.1 0.00 0.00 0.00 92 1012.1
20260509062621 67 280 3.5 5.2 0.00 0.00 0.00 93 1012.0
20260509061622 67 281 2.6 4.3 0.00 0.00 0.00 92 1012.0
20260509060721 67 292 4.3 5.2 0.00 0.00 0.00 91 1011.9
20260509055722 68 269 0.9 2.6 0.00 0.00 0.00 91 1011.5
20260509054722 68 324 0.9 2.6 0.00 0.00 0.00 91 1011.6
20260509053740 68 311 0.9 2.6 0.00 0.00 0.00 91 1011.3
20260509052722 68 346 5.2 7.8 0.00 0.00 0.00 89 1011.5
20260509051822 68 180 0.0 0.0 0.00 0.00 0.00 91 1010.6
20260509050920 68 157 0.0 0.0 0.00 0.00 0.00 90 1010.6
20260509045941 68 157 0.9 3.5 0.00 0.00 0.00 89 1010.4
20260509044928 68 157 0.9 2.6 0.00 0.00 0.00 87 1010.3
20260509044026 69 112 0.0 0.0 0.00 0.00 0.00 87 1010.6
20260509043043 69 112 0.0 1.7 0.00 0.00 0.00 87 1010.4
20260509042126 69 112 1.7 2.6 0.00 0.00 0.00 88 1010.4
20260509041144 70 90 0.9 2.6 0.00 0.00 0.00 87 1010.5
20260509040144 70 104 0.0 0.0 0.00 0.00 0.00 86 1010.3
20260509035126 70 156 4.3 6.1 0.00 0.00 0.00 87 1009.9
20260509034141 70 157 4.3 6.1 0.00 0.00 0.00 87 1009.8
20260509033225 70 157 2.6 7.0 0.00 0.00 0.00 87 1009.5
20260509031227 70 157 6.1 8.7 0.00 0.00 0.00 86 1009.1
20260509030326 70 161 5.2 7.0 0.00 0.00 0.00 86 1009.1
20260509025328 70 157 3.5 6.1 0.00 0.00 0.00 86 1008.8
20260509023327 71 157 7.0 9.6 0.00 0.00 0.00 85 1008.2
20260509022327 71 160 6.1 7.8 0.00 0.00 0.00 85 1008.5
20260509021327 71 153 6.1 7.8 0.00 0.00 0.00 85 1008.5
20260509020342 71 140 3.5 6.1 0.00 0.00 0.00 84 1008.6
20260509015426 71 157 4.3 6.1 0.00 0.00 0.00 82 1008.6
20260509014442 71 135 2.6 4.3 0.00 0.00 0.00 82 1008.7
20260509013427 71 112 0.0 0.0 0.00 0.00 0.00 82 1008.9
20260509012526 71 112 0.0 0.0 0.00 0.00 0.00 81 1008.7
20260509011625 72 135 0.0 0.0 0.00 0.00 0.00 80 1008.6
20260509005727 72 103 0.0 2.6 0.00 0.00 0.00 78 1008.1
20260509003725 73 135 1.7 2.6 0.00 0.00 0.00 78 1007.9
20260509002725 73 135 1.7 3.5 0.00 0.00 0.00 77 1008.0
20260509001727 73 135 0.0 0.9 0.00 0.00 0.00 76 1008.2
20260509000742 73 135 0.9 3.5 0.00 0.00 0.00 77 1008.4
20260508235727 73 157 0.9 3.5 0.00 0.00 0.00 76 1008.3
20260508234825 74 135 0.9 3.5 0.00 0.00 0.00 76 1008.4
20260508233827 73 150 0.9 4.3 0.00 0.00 0.00 76 1008.6
20260508232842 73 135 0.9 1.7 0.00 0.00 0.00 76 1008.5
20260508231925 73 157 1.7 3.5 0.00 0.00 0.00 76 1008.4
20260508230926 73 156 2.6 5.2 0.00 0.00 0.00 74 1008.3
20260508225926 73 182 2.6 7.8 0.00 0.00 0.00 75 1008.6
20260508224926 74 153 5.2 7.0 0.00 0.00 0.00 73 1008.4
20260508223926 74 149 5.2 6.1 0.00 0.00 0.00 73 1008.3
20260508222924 75 154 7.8 10.4 0.00 0.00 0.00 72 1008.2
20260508221926 74 156 7.0 9.6 0.00 0.00 0.00 73 1008.3
20260508220926 74 166 7.8 11.3 0.00 0.00 0.00 72 1008.4
20260508215925 74 160 10.4 13.0 0.00 0.00 0.00 71 1008.6
20260508213927 73 158 4.3 8.7 0.00 0.00 0.00 70 1008.8